Location: Armidale
(30.5016°S, 151.6662°E)
Time: 02:24:50
(UTC+10:00)

Hubble Space Telescope - Pass Details

Date: 07 August 2020
Orbit: 536 x 540 km, 28.5° (Epoch: 28 September)

Event Time Altitude Azimuth Distance (km) Brightness Sun altitude
Rises 18:46:09 0° 282° (WNW) 2,679 6.1 -18.1°
Reaches altitude 10° 18:48:26 10° 285° (WNW) 1,789 4.7 -18.6°
Maximum altitude 18:52:31 62° 5° (N) 607 0.9 -19.5°
Enters shadow 18:53:25 47° 59° (ENE) 712 1.0 -19.6°
